Simultaneous Nadir Overpasses (SNOs) Predictions

Prediction of SNOs between FY3D and METOP-C Satellite Orbit:

Table of predicted SNOs for the next 14.0 days since TLE Epoch: 12/14/2024
Index Date (FY3D) Time (FY3D) Lat,Lon (FY3D) SZA (FY3D ) Date (METOP-C) Time (METOP-C) Lat,Lon (METOP-C) SZA (METOP-C ) Distance(km) Time Diff (sec)
1 12/15/2024 04:47:47 76.87, 107.74 100.09 12/15/2024 04:48:52 76.83, 111.19 100.09 87.32 65
2 12/15/2024 05:38:28 -76.75, -84.45 80.03 12/15/2024 05:39:36 -76.73, -81.90 80.03 65.15 68
3 12/15/2024 06:29:09 76.52, 83.77 99.75 12/15/2024 06:30:21 76.50, 84.58 99.74 20.91 72
4 12/15/2024 07:19:51 -76.45,-108.61 80.33 12/15/2024 07:21:05 -76.40,-108.49 80.37 6.60 74
5 12/15/2024 08:10:36 76.39, 58.91 99.62 12/15/2024 08:11:45 76.39, 58.83 99.63 2.06 69
6 12/15/2024 09:01:20 -76.40,-133.82 80.37 12/15/2024 09:02:26 -76.42,-133.73 80.34 3.09 66
7 12/15/2024 09:52:06 76.39, 33.54 99.63 12/15/2024 09:53:06 76.42, 33.59 99.66 3.44 60
8 12/15/2024 10:42:50 -76.40,-159.19 80.36 12/15/2024 10:43:48 -76.40,-159.14 80.36 1.29 58
9 12/15/2024 11:33:36 76.39, 8.17 99.63 12/15/2024 11:34:28 76.40, 8.18 99.64 1.12 52
10 12/15/2024 12:24:20 -76.40, 175.44 80.36 12/15/2024 12:25:10 -76.38, 175.45 80.38 2.12 50
11 12/15/2024 13:15:06 76.39, -17.21 99.63 12/15/2024 13:15:50 76.38, -17.23 99.63 1.22 44
12 12/15/2024 14:05:50 -76.40, 150.06 80.36 12/15/2024 14:06:31 -76.41, 150.20 80.35 3.76 41
13 12/15/2024 14:56:35 76.39, -42.58 99.64 12/15/2024 14:57:10 76.41, -42.47 99.66 3.31 35
14 12/15/2024 15:47:19 -76.40, 124.69 80.35 12/15/2024 15:47:52 -76.39, 124.79 80.36 3.01 33
15 12/15/2024 16:38:05 76.39, -67.95 99.64 12/15/2024 16:38:32 76.39, -67.88 99.64 1.81 27
16 12/15/2024 17:28:48 -76.36, 99.49 80.39 12/15/2024 17:29:14 -76.37, 99.39 80.38 3.03 26
17 12/15/2024 18:19:35 76.39, -93.33 99.64 12/15/2024 18:19:54 76.37, -93.29 99.62 2.54 19
18 12/15/2024 19:10:18 -76.36, 74.11 80.39 12/15/2024 19:10:36 -76.35, 73.98 80.40 3.63 18
19 12/15/2024 20:01:05 76.39,-118.70 99.65 12/15/2024 20:01:15 76.39,-118.54 99.65 4.21 10
20 12/15/2024 20:51:48 -76.36, 48.74 80.39 12/15/2024 20:51:57 -76.38, 48.73 80.37 2.31 9
21 12/15/2024 21:42:34 76.34,-143.90 99.61 12/15/2024 21:42:37 76.37,-143.95 99.64 3.53 3
22 12/15/2024 22:33:18 -76.36, 23.37 80.39 12/15/2024 22:33:19 -76.36, 23.32 80.38 1.21 1
23 12/15/2024 23:24:04 76.34,-169.28 99.61 12/15/2024 23:23:59 76.36,-169.36 99.62 2.44 5
24 12/16/2024 00:14:48 -76.36, -2.01 80.38 12/16/2024 00:14:41 -76.34, -2.09 80.40 2.90 7
25 12/16/2024 01:05:34 76.34, 165.35 99.61 12/16/2024 01:05:21 76.34, 165.23 99.60 3.22 13
26 12/16/2024 01:56:18 -76.36, -27.38 80.38 12/16/2024 01:56:02 -76.37, -27.33 80.37 1.52 16
27 12/16/2024 02:47:04 76.34, 139.98 99.61 12/16/2024 02:46:42 76.36, 139.99 99.63 1.99 22
28 12/16/2024 03:37:48 -76.36, -52.75 80.38 12/16/2024 03:37:24 -76.35, -52.74 80.39 1.20 24
29 12/16/2024 04:28:34 76.34, 114.60 99.62 12/16/2024 04:28:04 76.34, 114.58 99.61 0.70 30
30 12/16/2024 05:19:18 -76.36, -78.12 80.37 12/16/2024 05:18:46 -76.33, -78.15 80.41 3.38 32
31 12/16/2024 06:10:04 76.34, 89.23 99.62 12/16/2024 06:09:26 76.32, 89.17 99.60 2.83 38
32 12/16/2024 07:00:48 -76.36,-103.50 80.37 12/16/2024 07:00:07 -76.35,-103.40 80.38 2.65 41
33 12/16/2024 07:51:34 76.34, 63.86 99.62 12/16/2024 07:50:47 76.35, 63.92 99.63 1.82 47
34 12/16/2024 08:42:18 -76.36,-128.87 80.37 12/16/2024 08:41:29 -76.33,-128.81 80.39 3.05 49
35 12/16/2024 09:33:04 76.34, 38.48 99.63 12/16/2024 09:32:09 76.33, 38.51 99.61 1.74 55
36 12/16/2024 10:23:47 -76.31,-154.08 80.41 12/16/2024 10:22:51 -76.31,-154.22 80.41 3.65 56
37 12/16/2024 11:14:34 76.34, 13.11 99.63 12/16/2024 11:13:31 76.31, 13.11 99.59 3.72 63
38 12/16/2024 12:05:17 -76.31,-179.45 80.41 12/16/2024 12:04:12 -76.34,-179.46 80.38 3.16 65
39 12/16/2024 12:56:04 76.34, -12.26 99.63 12/16/2024 12:54:52 76.34, -12.14 99.62 3.27 72
40 12/16/2024 13:46:47 -76.31, 155.18 80.40 12/16/2024 13:45:34 -76.32, 155.13 80.40 1.61 73
41 12/16/2024 14:37:29 76.12, -36.81 99.42 12/16/2024 14:36:18 76.14, -38.19 99.42 36.92 71
42 12/16/2024 15:28:11 -76.04, 130.78 80.66 12/16/2024 15:27:01 -76.07, 128.92 80.65 49.91 70



Historial Predications of SNOs between FY3D and METOP-C
